www.pogodaiklimat.ru

Погода и климат >> Архив погоды >> Россия >> Чукотка >> Чаун


ПОГОДА в Чауне

  • Прогноз погоды в Чауне
  • Монитор погоды в Чауне
  • Климат города

АРХИВ ПОГОДЫ в Чауне

Время (UTC), дата Ветер
(напр.,м/с)
 
Видим.   Явления Облачность Т
(С)
Тd
(С)
f
(%)
Тe
(С)
Тes
(С)
Комфортность P
(гПа)
Po
(гПа)
Тmin
(С)
Tmax
(С)
R
(мм)
R24
(мм)
S
(см)
00 12.12 СЗ 11-14
{14}
4000 м метель 10/5 200 м
[St Ac und]
-23.0 -24.9 84 -38 -38 опасность
обморожения
1035.9 1035.2
03 12.12 СЗ 12-14
{14}
4000 м метель 9/4 200 м
[St Ac trans]
-22.9 -24.8 84 -39 -39 опасность
обморожения
1035.8 1035.1
06 12.12 СЗ 8-10
{14}
20 км позёмок {метель} 9/4 200 м
[St Ac trans]
-23.5 -25.3 85 -37 -37 опасность
обморожения
1035.8 1035.1
09 12.12 СЗ 9-12
{12}
20 км позёмок {метель} 9/4 200 м
[St Ac trans]
-22.4 -24.2 85 -36 -36 опасность
обморожения
1034.6 1033.9 -22.4
12 12.12 СЗ 6
{12}
20 км позёмок {метель} 9/4 200 м
[St Ac trans]
-21.4 -23.3 85 -33 -33 опасность
обморожения
1033.5 1032.8
15 12.12 СЗ 9-11
{11}
20 км позёмок {метель} 10/5 200 м
[St Ac und]
-19.8 -21.7 85 -33 -33 опасность
обморожения
1031.9 1031.2
18 12.12 СЗ 10-11
{12}
20 км позёмок {метель} 10/5 200 м
[St Ac und]
-20.4 -22.3 85 -34 -34 опасность
обморожения
1030.6 1028.9
21 12.12 СЗ 10-12
{13}
20 км позёмок {метель} 10/4 200 м
[St Ac und]
-19.8 -21.7 85 -33 -33 опасность
обморожения
1029.1 1028.4 -22.4 24
00 13.12 СЗ 11-14
{14}
4000 м слабый снег {метель} 10/4 200 м
[Frnb As op]
-19.7 -21.6 85 -34 -34 опасность
обморожения
1026.9 1026.3
03 13.12 СЗ 6
{14}
4000 м слабый снег {метель} 10/5 200 м
[Frnb As op]
-17.3 -18.5 90 -27 -27 1024.9 1024.3
06 13.12 С 7
{9}
4000 м слабый снег {метель} 10/5 200 м
[Frnb As op]
-16.6 -17.9 90 -27 -27 1023.3 1022.7
09 13.12 С 3
{8}
20 км {снег, метель} 10/4 200 м
[St Ac und]
-16.9 -18.1 90 -24 -24 1021.7 1021.1 -16.5 0.6
12 13.12 СЗ 5
{8}
20 км {снег, метель} 10/4 200 м
[St Ac und]
-16.9 -18.1 90 -26 -26 1019.8 1019.2
15 13.12 СЗ 7
{9}
20 км позёмок {метель} 10/4 200 м
[St Ac und]
-16.1 -17.4 90 -27 -27 1017.4 1016.8
18 13.12 С 8-10
{10}
20 км позёмок {метель} 10/4 200 м
[St Ac und]
-15.4 -16.7 90 -26 -26 1014.7 1014.1
21 13.12 С 11-13
{13}
4000 м слабый снег {метель} 10/8 100 м
[Frnb As op]
-13.7 -14.8 91 -26 -26 1011.8 1011.2 -17.1 0.5 27
00 14.12 С 14-15
{16}
4000 м слабый снег {метель} 10/8 90 м
[Frnb As op]
-12.1 -13.4 90 -25 -25 1007.6 1007.0
03 14.12 С 11-14
{16}
4000 м слабый снег {метель} 10/5 200 м
[Frnb As op]
-9.1 -10.2 92 -20 -20 1005.0 1004.4
06 14.12 СВ 12-15
{15}
4000 м метель {снег} 8/4 200 м
[St Ac trans]
-6.8 -7.6 94 -18 -18 1003.4 1002.8
09 14.12 СВ 9-11
{16}
20 км позёмок {метель} 8/4 200 м
[St Ac trans]
-6.7 -7.8 92 -16 -16 1003.0 1002.4 -6.4 1
12 14.12 СВ 10-13
{14}
4000 м слабый снег {метель} 10/8 120 м
[Frnb As op]
-6.6 -7.4 94 -17 -17 1002.6 1002.0
15 14.12 В 12-15
{15}
4000 м метель {снег} 10/8 120 м
[Frnb As op]
-7.0 -7.9 93 -18 -18 1002.3 1001.7
18 14.12 В 11-15
{17}
4000 м слабый снег {метель} 10/5 200 м
[Frnb As op]
-6.9 -7.8 93 -17 -17 1003.0 1002.4
21 14.12 В 10-15
{15}
4000 м слабый снег {метель} 10/5 200 м
[Frnb As op]
-6.9 -7.8 93 -17 -17 1004.0 1003.4 -7.2 1 30
00 15.12 СВ 10-14
{14}
20 км позёмок {метель} 10/5 200 м
[St Ac und]
-6.7 -7.9 91 -17 -17 1005.0 1004.4
03 15.12 СВ 10-13
{14}
4000 м слабый снег {метель} 10/6 180 м
[Frnb As op]
-7.1 -8.0 93 -17 -17 1005.7 1005.1
06 15.12 СВ 14-15
{18}
2000 м снег {метель} 10/6 180 м
[Frnb As op]
-7.7 -8.7 93 -19 -19 1006.8 1006.2
09 15.12 СВ 14-15
{16}
2000 м метель {снег} 10/5 200 м
[St Ac und]
-8.6 -9.7 92 -21 -21 1007.6 1007.0 -6.6 3
12 15.12 СВ 14-15
{16}
2000 м метель {снег} 10/5 200 м
[St Ac und]
-9.7 -10.9 91 -22 -22 1007.6 1007.0
15 15.12 СВ 14-15
{18}
2000 м метель 10/5 200 м
[St Ac und]
-10.6 -11.5 93 -23 -23 1006.9 1005.3
18 15.12 СВ 14-15
{17}
2000 м метель 10/5 200 м
[St Ac und]
-11.0 -12.3 90 -23 -23 1007.1 1006.5
21 15.12 СВ 13-15
{16}
2000 м метель 10/5 200 м
[St Ac und]
-11.4 -12.3 93 -24 -24 1007.2 1006.6 -11.5 44
00 16.12 СВ 13-15
{16}
2000 м метель 10/5 200 м
[St Ac und]
-11.2 -12.6 89 -23 -23 1007.1 1006.5
03 16.12 В 12-14
{15}
4000 м слабый снег {метель} 10/6 200 м
[Frnb As op]
-11.0 -11.9 93 -23 -23 1006.2 1005.5
06 16.12 СВ 14-16
{18}
2000 м слабый снег {метель} 10/6 180 м
[Frnb As op]
-10.8 -11.6 94 -23 -23 1006.8 1006.2
09 16.12 СВ 14-15
{18}
2000 м слабый снег {метель} 10/6 180 м
[Frnb As op]
-11.0 -11.9 93 -23 -23 1007.1 1006.5 -10.7 1
12 16.12 СВ 10-12
{15}
4000 м слабый снег {метель} 10/5 200 м
[Frnb As op]
-11.6 -12.5 93 -23 -23 1007.6 1007.0
15 16.12 СВ 9-12
{14}
4000 м слабый снег {метель} 10/5 200 м
[Frnb As op]
-11.3 -13.2 86 -22 -22 1008.4 1007.8
18 16.12 СВ 10-13
{14}
4000 м слабый снег {метель} 10/5 200 м
[Frnb As op]
-11.6 -12.5 93 -23 -23 1008.6 1008.0
21 16.12 СВ 8-10
{13}
4000 м слабый снег {метель} 10/8 150 м
[Frnb As op]
-12.5 -13.7 91 -23 -23 1009.0 1008.4 -12.5 1 48
00 17.12 СВ 9-12
{13}
4000 м слабый снег {метель} 10/8 120 м
[Frnb As op]
-13.1 -14.4 90 -24 -24 1009.2 1008.6 -13.1
03 17.12 СВ 8-14
{16}
4000 м слабый снег {метель} 10/8 120 м
[Frnb As op]
-13.5 -14.7 91 -24 -24 1009.3 1008.7
06 17.12 СВ 9-12
{14}
4000 м слабый снег {метель} 10/8 180 м
[Frnb As op]
-13.6 -14.9 90 -25 -25 1009.9 1009.3
09 17.12 СВ 9-10
{12}
20 км позёмок {снег, метель} 9/5 200 м
[St Ac trans]
-13.5 -14.8 90 -24 -24 1010.7 1010.1 -12.5 0.9
12 17.12 СВ 7
{11}
20 км позёмок {снег, метель} 9/4 200 м
[St Ac trans]
-14.6 -16.0 89 -25 -25 1011.6 1011.0
15 17.12 В 6
{9}
20 км позёмок {метель} 9/4 200 м
[St Ac trans]
-14.4 -15.7 90 -24 -24 1011.8 1011.2
18 17.12 В 4
{9}
20 км {метель} 9/4 200 м
[St Ac trans]
-17.3 -18.6 90 -26 -26 1012.2 1011.6
21 17.12 Ю 2
{5}
20 км 8/4 200 м
[St Ac trans]
-20.2 -22.1 85 -26 -26 1012.6 1012.0 -20.8 50
00 18.12 С 2
{3}
20 км 9/4 200 м
[St Ac trans]
-22.3 -24.8 80 -29 -29 1012.9 1012.3 -22.3
03 18.12 С 2
{3}
20 км 8/4 200 м
[St Ac trans]
-23.4 -25.2 85 -30 -30 1012.3 1011.6
06 18.12 штиль 0
{3}
20 км 6/4 200 м
[St Ac trans]
-24.8 -26.3 87 -25 -25 1011.4 1010.7
09 18.12 СЗ 2
{3}
20 км 6/4 200 м
[St Ac trans]
-25.5 -28.0 79 -32 -32 опасность
обморожения
1010.5 1009.8 -19.5
12 18.12 штиль 0
{4}
20 км 6/4 200 м
[St Ac trans]
-23.8 -26.3 80 -24 -24 1008.8 1008.1
15 18.12 З 2
{4}
20 км 6/4 200 м
[St Ac trans]
-25.7 -28.1 80 -32 -32 опасность
обморожения
1005.7 1005.0
18 18.12 СЗ 4
{6}
20 км 6/4 200 м
[St Ac trans]
-27.5 -29.9 80 -38 -38 опасность
обморожения
1003.0 1002.3
21 18.12 СЗ 5
{7}
20 км 6/4 200 м
[St Ac trans]
-24.4 -26.9 80 -36 -36 опасность
обморожения
1000.4 999.8 -28.0 50

 

Местоположение метеостанции Чаун (Чукотка, Россия): широта 68.88 долгота 170.70 высота над уровнем моря 5 м.

В архиве по умолчанию представлена погода в Чауне за последнюю неделю. Архивные данные за месяц целиком и за предыдущие месяцы, начиная с января 2011 года, Вы можете получить, выбрав интересующий диапазон дат из раскрывающегося списка и нажав кнопку "Ввод!".

Внимание! Время в таблицах - всемирное. Для получения местного времени необходимо прибавить поправку, которая в Чауне равна 12 ч.

Смотрите также архив погоды в соседних городах и на ближайших метеорологических станциях:

Погода в 21 км (Чукотка, Россия) (84 км)
Погода в Комсомольской (Чукотка, Россия) (89 км)
Погода в Певеке (Чукотка, Россия) (93 км)
Погода в Майской (Чукотка, Россия) (117 км)
Погода в Валькаркае (Чукотка, Россия) (134 км)
Погода в Паляваам-Глубокой (Чукотка, Россия) (137 км)
Погода на Айон Острове (Чукотка, Россия) (160 км)
Погода в Раучуе (Чукотка, Россия) (180 км)
Погода в Билибино (Чукотка, Россия) (198 км)
Погода в Илирнее (Чукотка, Россия) (215 км)

Пояснения к столбцам:

Ветер - указаны скорость ветра в м/с - средняя за 10 мин, порывы в срок и между сроками (в фигурных скобках) и направление, откуда дует ветер: С - северный, СВ - северо-восточный, В - восточный, ЮВ - юго-восточный, Ю - южный, ЮЗ - юго-западный, З - западный, СЗ - северо-западный.
Видимость - горизонтальная дальность видимости в метрах или километрах. При видимости от 1 до 10 км при отсутствии осадков обычно наблюдается дымка, при ухудшении видимости до 1 км и менее - туман. В сухую погоду видимость может ухудшаться дымом, пылью или мглою.
Явления - указаны атмосферные явления, наблюдавшиеся в срок или в последний час перед сроком; фигурными скобками обозначены явления, наблюдавшиеся между сроками (за 1-3 часа до срока); квадратными скобками обозначены град или гололедные отложения с указанием их диаметра в мм.
Облачность - указаны через наклонную черту общая и нижняя облачность в баллах и высота нижней границы облаков в метрах; квадратными скобками обозначены формы облаков: Ci - перистые, Cs - перисто-слоистые, Cc - перисто-кучевые, Ac - высококучевые, As - высокослоистые, Sc - слоисто-кучевые, Ns - слоисто-дождевые, Cu - кучевые, Cb - кучево-дождевые. Подробнее классификацию облаков см. в Атласе облаков (PDF).
T - Температура воздуха - температура, измеренная на высоте 2 м над землей.
Td - Температура точки росы - температура, при понижении до которой содержащийся в воздухе водяной пар достигнет насыщения.
f - Относительная влажность воздуха - влажноcть воздуха, измеренная на высоте 2 м над землей.
Te - Эффективная температура - температура, которую ощущает одетый по сезону человек в тени. Характеристика душности погоды. При расчете учитывается влияние влажности воздуха и скорости ветра на теплоощущения человека.
Tes - Эффективная температура на солнце - температура, которую ощущает человек, с поправкой на солнечный нагрев. Характеристика знойности погоды. Зависит от высоты солнца над горизонтом, облачности и скорости ветра. Ночью, в пасмурную погоду, а также при ветре 12 м/с и более поправка равна нулю.
P - Атмосферное давление - приведенное к уровню моря атмосферное давление.
Po - Атмосферное давление - измеренное на уровне метеостанции атмосферное давление.
Tmin - Минимальная температура - минимум температуры воздуха на высоте 2 м над землей.
Tmax - Максимальная температура - максимум температуры воздуха на высоте 2 м над землей.
R - Количество осадков - Количество выпавших осадков за период времени, мм. При наведении курсора мыши на число - период времени, за который выпало указанное количество осадков.
R24 - Количество осадков - Количество выпавших осадков за 24 часа, мм.
S - Снежный покров - Высота снежного покрова, см. При наведении курсора мыши на число - состояние снежного покрова и степень покрытия местности в баллах.